1530684001.03,37072,16.44,74040.5,15.57,-21.09,-21.67,0,*42
1530684002.27,37073,16.44,74036.3,15.57,-21.39,-22.17,0,*44
1530684003.48,37074,16.44,74040.5,15.57,-20.59,-21.47,0,*42
1530684004.71,37075,16.44,74038.8,15.57,-21.33,-22.11,0,*4E
1530684005.91,37076,16.44,74038.0,15.57,-21.47,-22.41,0,*4B
1530684007.14,37077,16.5,74040.5,15.57,-21.23,-22.11,0,*4D
1530684008.39,37078,16.5,74040.0,15.55,-21.33,-22.11,0,*41
1530684009.66,37079,16.5,74040.8,15.55,-20.43,-21.23,0,*44
1530684010.87,37080,16.5,74042.8,15.57,-19.71,-20.63,0,*4E
1530684012.08,37081,16.5,74042.0,15.57,-19.47,-20.29,0,*44
1530684013.3,37082,16.44,74040.5,15.57,-19.47,-20.39,0,*46
1530684014.55,37083,16.44,74040.8,15.59,-19.51,-20.35,0,*42
1530684015.79,37084,16.44,74042.0,15.59,-19.13,-19.95,0,*43
1530684017.02,37085,16.44,74038.3,15.63,-19.07,-19.75,0,*40
1530684018.28,37086,16.5,74042.8,15.63,-18.55,-19.37,0,*43
1530684019.54,37087,16.44,74042.3,15.67,-19.23,-20.09,0,*41
1530684020.78,37088,16.44,74036.0,15.69,-19.61,-20.39,0,*45
1530684022.01,37089,16.44,74042.3,15.69,-19.31,-20.09,0,*42
1530684023.24,37090,16.5,74046.5,15.73,-19.27,-20.05,0,*4A
1530684024.49,37091,16.44,74040.5,15.71,-20.35,-21.13,0,*46
1530684025.71,37092,16.5,74042.0,15.73,-19.91,-20.79,0,*4E
1530684026.94,37093,16.5,74042.0,15.73,-19.57,-20.29,0,*40
1530684028.18,37094,16.44,74038.8,15.73,-19.85,-20.79,0,*4D
1530684029.41,37095,16.44,74040.3,15.73,-19.31,-20.29,0,*46
1530684030.66,37096,16.44,74042.3,15.75,-19.07,-19.85,0,*4A
1530684031.91,37097,16.44,74042.8,15.75,-19.03,-19.85,0,*4F
1530684033.11,37098,16.5,74044.3,15.77,-19.51,-20.43,0,*45
1530684034.33,37099,16.5,74046.5,15.77,-21.23,-22.27,0,*4A
1530684035.57,37100,16.5,74040.8,15.75,-20.79,-21.73,0,*45
1530684036.82,37101,16.44,74042.0,15.75,-20.93,-21.87,0,*4B
1530684038.09,37102,16.44,74040.8,15.75,-20.15,-21.03,0,*4A
1530684039.31,37103,16.5,74042.5,15.75,-20.09,-20.93,0,*4E
1530684040.56,37104,16.5,74044.8,15.75,-21.09,-22.17,0,*46
1530684041.81,37105,16.44,74042.0,15.75,-21.03,-22.03,0,*48
1530684043.05,37106,16.44,74042.0,15.75,-20.15,-21.09,0,*44
1530684044.32,37107,16.44,74042.5,15.75,-19.23,-20.15,0,*46
1530684045.61,37108,16.5,74042.8,15.75,-19.27,-20.35,0,*4F
1530684046.84,37109,16.44,74042.0,15.77,-19.31,-20.25,0,*4A
1530684048.04,37110,16.5,74042.8,15.77,-19.17,-20.25,0,*46
1530684049.3,37111,16.44,74040.8,15.79,-19.17,-20.19,0,*46
1530684050.53,37112,16.44,74042.0,15.81,-18.79,-19.91,0,*41
1530684051.81,37113,16.44,74042.5,15.79,-19.23,-20.19,0,*43
1530684053.04,37114,16.44,74042.5,15.81,-18.99,-19.99,0,*41
1530684054.28,37115,16.44,74044.0,15.81,-19.07,-20.15,0,*48
1530684055.52,37116,16.5,74044.3,15.81,-19.17,-20.25,0,*49
1530684056.77,37117,16.5,74044.3,15.83,-19.57,-20.79,0,*47
1530684058.02,37118,16.5,74044.8,15.83,-20.79,-21.87,0,*4E
1530684059.23,37119,16.5,74046.3,15.83,-20.69,-21.93,0,*4B
1530684060.45,37120,16.44,74040.3,15.83,-20.99,-22.07,0,*40
1530684061.7,37121,16.5,74044.3,15.81,-20.83,-22.07,0,*48
1530684062.95,37122,16.44,74042.8,15.81,-21.09,-22.21,0,*4C
1530684064.19,37123,16.44,74042.8,15.79,-20.29,-21.53,0,*4F
1530684065.42,37124,16.44,74042.0,15.79,-19.37,-20.59,0,*46
1530684066.68,37125,16.5,74044.3,15.79,-19.61,-20.73,0,*4C
1530684067.9,37126,16.44,74042.5,15.81,-19.91,-21.09,0,*4B
1530684069.15,37127,16.5,74044.8,15.81,-19.75,-20.99,0,*48
1530684070.38,37128,16.44,74042.5,15.83,-19.41,-20.63,0,*47
1530684071.64,37129,16.5,74046.5,15.83,-19.41,-20.53,0,*45
1530684072.9,37130,16.44,74044.5,15.83,-19.23,-20.53,0,*49
1530684074.1,37131,16.44,74042.5,15.83,-19.99,-21.13,0,*4C
1530684075.31,37132,16.5,74042.3,15.83,-19.99,-21.17,0,*4B
1530684076.52,37133,16.5,74046.3,15.85,-20.09,-21.39,0,*43
1530684077.78,37134,16.44,74044.5,15.85,-19.95,-21.03,0,*42
1530684079.05,37135,16.44,74040.8,15.85,-20.19,-21.53,0,*48
1530684080.3,37136,16.44,74042.0,15.85,-20.59,-21.83,0,*42
1530684081.52,37137,16.44,74042.5,15.89,-20.69,-21.93,0,*4D
1530684082.75,37138,16.5,74044.0,15.83,-20.19,-21.39,0,*4F
1530684083.98,37139,16.44,74046.0,15.85,-19.13,-20.29,0,*48
1530684085.24,37140,16.5,74046.3,15.85,-18.65,-19.57,0,*45
1530684086.51,37141,16.5,74044.5,15.89,-18.59,-19.65,0,*46
1530684087.71,37142,16.5,74046.3,15.91,-18.79,-19.91,0,*45
1530684088.91,37143,16.44,74042.5,15.91,-18.25,-19.47,0,*46
1530684090.12,37144,16.5,74044.8,15.95,-19.81,-20.93,0,*49
1530684091.36,37145,16.5,74042.8,15.93,-20.09,-21.33,0,*4F
1530684092.6,37146,16.5,74042.5,15.95,-20.19,-21.27,0,*4E
1530684093.82,37147,16.5,74044.3,15.93,-20.69,-21.77,0,*4B
1530684095.06,37148,16.44,74042.3,15.93,-21.27,-22.37,0,*48
1530684096.31,37149,16.5,74044.3,15.93,-21.33,-22.53,0,*4E
1530684097.58,37150,16.44,74040.0,15.89,-21.67,-22.77,0,*4A
1530684098.81,37151,16.5,74044.3,15.91,-19.99,-21.03,0,*48
1530684100.04,37152,16.44,74040.0,15.89,-19.17,-20.25,0,*41
1530684101.27,37153,16.5,74042.0,15.91,-19.41,-20.39,0,*47
1530684102.51,37154,16.5,74044.0,15.89,-19.17,-20.05,0,*45
1530684103.7,37155,16.5,74044.0,15.91,-18.79,-19.71,0,*4D
1530684104.93,37156,16.44,74042.0,15.95,-18.73,-19.65,0,*45
1530684106.16,37157,16.5,74044.3,15.95,-19.37,-20.19,0,*44
1530684107.36,37158,16.5,74042.8,15.95,-18.99,-19.95,0,*40
1530684108.57,37159,16.44,74042.8,15.99,-19.17,-19.95,0,*4A
1530684109.82,37160,16.44,74042.8,15.97,-18.49,-19.27,0,*4D
1530684111.04,37161,16.44,74040.0,15.99,-18.41,-19.23,0,*4E
1530684112.29,37162,16.5,74044.5,16.01,-18.65,-19.41,0,*4D
1530684113.51,37163,16.5,74042.8,16.03,-18.41,-19.31,0,*4F
1530684114.7,37164,16.44,74038.8,16.03,-18.11,-18.83,0,*45
1530684115.96,37165,16.5,74040.5,16.05,-19.57,-20.43,0,*46
1530684117.18,37166,16.5,74042.8,16.05,-20.05,-20.93,0,*45
1530684118.43,37167,16.44,74040.8,16.05,-19.51,-20.35,0,*43
1530684119.67,37168,16.44,74040.8,16.05,-19.37,-20.43,0,*4D
1530684120.92,37169,16.5,74040.5,16.05,-19.37,-20.15,0,*4F
1530684122.17,37170,16.5,74040.3,16.05,-19.51,-20.35,0,*45
1530684123.37,37171,16.5,74042.8,16.07,-19.75,-20.73,0,*42
1530684124.57,37172,16.5,74040.3,16.07,-19.47,-20.29,0,*4F
1530684125.77,37173,16.5,74042.3,16.07,-19.95,-20.93,0,*40
1530684126.98,37174,16.44,74038.5,16.11,-19.17,-20.05,0,*45
1530684128.23,37175,16.44,74036.5,16.11,-20.19,-21.27,0,*41
1530684129.45,37176,16.5,74040.5,16.11,-19.81,-20.63,0,*48
1530684130.65,37177,16.5,74038.8,16.07,-19.75,-20.59,0,*4C
1530684131.85,37178,16.5,74042.0,16.07,-20.43,-21.39,0,*4B
1530684133.07,37179,16.44,74038.8,16.07,-20.15,-21.09,0,*4A
1530684134.29,37180,16.44,74038.0,16.07,-19.85,-20.89,0,*46
1530684135.52,37181,16.44,74038.8,16.07,-21.33,-22.27,0,*47
1530684136.74,37182,16.44,74036.8,16.07,-19.85,-20.73,0,*41
1530684137.93,37183,16.5,74040.0,16.07,-20.73,-21.63,0,*43
1530684139.15,37184,16.5,74038.0,16.07,-20.15,-20.93,0,*4A
1530684140.35,37185,16.44,74034.5,16.07,-19.51,-20.29,0,*40
1530684141.58,37186,16.44,74038.5,16.07,-19.23,-19.99,0,*47
1530684142.81,37187,16.5,74038.8,16.07,-19.75,-20.53,0,*49
1530684144.03,37188,16.44,74036.3,16.11,-20.09,-20.83,0,*4D
1530684145.27,37189,16.44,74036.5,16.11,-21.03,-21.97,0,*43
1530684146.5,37190,16.44,74036.3,16.11,-21.33,-22.11,0,*45
1530684147.72,37191,16.5,74042.3,16.05,-20.93,-21.73,0,*4D
1530684148.94,37192,16.44,74036.0,16.07,-20.69,-21.53,0,*4B
1530684150.18,37193,16.44,74036.0,16.05,-20.19,-21.09,0,*40
1530684151.43,37194,16.5,74040.0,16.05,-21.23,-22.03,0,*46
1530684152.67,37195,16.5,74040.0,16.05,-21.43,-22.31,0,*40
1530684153.89,37196,16.5,74042.3,16.03,-21.13,-21.97,0,*4F
1530684155.14,37197,16.5,74036.8,16.03,-20.53,-21.33,0,*45
1530684156.36,37198,16.44,74036.3,16.01,-21.73,-22.67,0,*49
1530684157.58,37199,16.44,74038.8,16.01,-21.63,-22.53,0,*4E
1530684158.8,37200,16.5,74038.0,16.01,-21.73,-22.53,0,*4C
1530684160.06,37201,16.5,74042.0,15.97,-21.53,-22.37,0,*41
1530684161.3,37202,16.5,74040.0,15.97,-22.37,-23.33,0,*46
1530684162.56,37203,16.44,74036.5,15.97,-22.17,-22.97,0,*4A
1530684163.84,37204,16.5,74040.3,15.97,-21.67,-22.47,0,*44
1530684165.06,37205,16.5,74040.8,15.93,-21.43,-22.11,0,*44
1530684166.25,37206,16.5,74040.5,15.95,-20.89,-21.73,0,*41
1530684167.47,37207,16.44,74038.0,15.93,-20.63,-21.47,0,*45
1530684168.67,37208,16.44,74036.8,15.95,-20.93,-21.63,0,*45
1530684169.9,37209,16.44,74036.3,15.93,-20.05,-20.83,0,*42
1530684171.14,37210,16.5,74036.0,15.93,-20.53,-21.43,0,*44
1530684172.37,37211,16.5,74042.0,15.95,-21.13,-21.87,0,*4E
1530684173.62,37212,16.5,74036.8,15.95,-20.35,-21.23,0,*46
1530684174.84,37213,16.5,74038.5,15.95,-20.93,-21.87,0,*45
1530684176.08,37214,16.44,74034.5,15.93,-21.27,-22.07,0,*41
1530684177.35,37215,16.5,74042.0,15.93,-20.79,-21.57,0,*4C
1530684178.56,37216,16.44,74036.5,15.91,-20.79,-21.43,0,*48
1530684179.75,37217,16.5,74040.0,15.91,-21.47,-22.41,0,*44
1530684180.96,37218,16.44,74038.0,15.93,-21.63,-22.41,0,*4F
1530684182.22,37219,16.5,74040.8,15.91,-20.83,-21.67,0,*44
1530684183.41,37220,16.44,74038.8,15.91,-19.91,-20.69,0,*48
1530684184.64,37221,16.44,74038.0,15.89,-21.39,-22.27,0,*41
1530684185.83,37222,16.5,74040.8,15.91,-21.17,-22.07,0,*45
1530684187.05,37223,16.5,74042.0,15.85,-21.09,-22.03,0,*4A
1530684188.32,37224,16.5,74042.0,15.85,-20.79,-21.53,0,*4D
1530684189.55,37225,16.5,74040.8,15.85,-20.43,-21.43,0,*44
1530684190.82,37226,16.44,74038.3,15.89,-20.99,-21.83,0,*40
1530684192.08,37227,16.44,74040.8,15.85,-21.03,-21.93,0,*4E
1530684193.27,37228,16.5,74040.8,15.83,-20.69,-21.73,0,*44
1530684194.47,37229,16.44,74042.5,15.83,-21.17,-22.07,0,*4D
1530684195.67,37230,16.5,74042.8,15.83,-21.77,-22.87,0,*4B
1530684196.88,37231,16.5,74044.5,15.83,-21.47,-22.53,0,*40
1530684198.11,37232,16.44,74040.0,15.81,-21.77,-22.97,0,*4A
1530684199.36,37233,16.5,74042.3,15.79,-22.11,-23.19,0,*48
1530684200.55,37234,16.5,74046.0,15.77,-22.41,-23.59,0,*40
1530684201.77,37235,16.44,74040.3,15.75,-21.17,-22.11,0,*4E
1530684202.99,37236,16.5,74040.5,15.77,-21.03,-22.07,0,*4D
1530684204.23,37237,16.44,74042.0,15.75,-20.73,-21.97,0,*42
1530684205.46,37238,16.5,74042.5,15.75,-21.73,-22.83,0,*4A
1530684206.65,37239,16.44,74042.8,15.73,-21.09,-22.07,0,*4C
1530684207.87,37240,16.5,74042.5,15.73,-20.29,-21.33,0,*45
1530684209.11,37241,16.44,74042.0,15.73,-21.57,-22.73,0,*4B
1530684210.34,37242,16.44,74042.0,15.73,-21.87,-22.87,0,*4E
1530684211.61,37243,16.5,74044.8,15.71,-22.21,-23.33,0,*4C
1530684212.86,37244,16.5,74044.0,15.71,-22.63,-23.85,0,*40
1530684214.12,37245,16.5,74042.5,15.67,-22.03,-23.23,0,*4C
1530684215.37,37246,16.44,74042.8,15.61,-22.17,-23.29,0,*46
1530684216.62,37247,16.5,74044.0,15.61,-22.47,-23.69,0,*46
1530684217.81,37248,16.44,74042.5,15.61,-22.03,-22.97,0,*49
1530684219.02,37249,16.44,74040.3,15.57,-23.13,-24.35,0,*43
1530684220.25,37250,16.5,74040.5,15.57,-22.31,-23.43,0,*4C
1530684221.51,37251,16.44,74040.8,15.55,-20.63,-21.67,0,*4E
1530684222.74,37252,16.5,74042.3,15.57,-20.43,-21.53,0,*4A
1530684223.98,37253,16.5,74046.0,15.57,-21.97,-23.09,0,*4E
1530684225.21,37254,16.5,74040.8,15.57,-20.83,-21.93,0,*4C
1530684226.46,37255,16.44,74040.3,15.55,-21.09,-22.17,0,*43
1530684227.67,37256,16.44,74042.8,15.53,-20.93,-22.11,0,*42
1530684228.89,37257,16.44,74042.5,15.55,-20.09,-21.17,0,*43
1530684230.13,37258,16.44,74040.8,15.55,-19.37,-20.39,0,*46
1530684231.38,37259,16.5,74044.5,15.57,-19.65,-20.89,0,*49
1530684232.6,37260,16.44,74040.0,15.57,-19.71,-20.89,0,*46
1530684233.83,37261,16.5,74044.0,15.57,-19.65,-20.73,0,*47
1530684235.08,37262,16.5,74042.5,15.59,-19.81,-21.13,0,*47
1530684236.33,37263,16.44,74040.3,15.59,-19.75,-20.99,0,*4E
1530684237.58,37264,16.5,74044.5,15.59,-20.25,-21.33,0,*47
1530684238.81,37265,16.5,74044.5,15.61,-19.07,-20.15,0,*42
1530684240.09,37266,16.44,74040.5,15.63,-18.93,-20.53,0,*4D
1530684241.35,37267,16.5,74042.5,15.63,-19.23,-20.43,0,*47
1530684242.62,37268,16.5,74042.8,15.63,-19.57,-20.93,0,*46
1530684243.81,37269,16.5,74044.5,15.61,-20.29,-21.47,0,*4E
1530684245.07,37270,16.5,74042.8,15.63,-19.37,-20.53,0,*45
1530684246.33,37271,16.44,74040.5,15.67,-19.85,-21.17,0,*48
1530684247.57,37272,16.44,74040.5,15.63,-20.19,-21.43,0,*41
1530684248.81,37273,16.5,74042.5,15.67,-19.51,-20.63,0,*41
1530684250.08,37274,16.5,74044.0,15.63,-19.37,-20.53,0,*41
1530684251.33,37275,16.44,74040.5,15.67,-19.41,-20.63,0,*46
1530684252.56,37276,16.5,74046.8,15.69,-19.51,-20.83,0,*44
1530684253.77,37277,16.44,74036.3,15.69,-19.37,-20.69,0,*41
1530684255.02,37278,16.44,74040.8,15.69,-18.89,-20.19,0,*4D
1530684256.24,37279,16.5,74042.8,15.69,-19.03,-20.35,0,*41
1530684257.49,37280,16.5,74044.3,15.71,-19.47,-20.83,0,*43
1530684258.71,37281,16.5,74040.5,15.73,-19.13,-20.39,0,*40
1530684259.94,37282,16.44,74042.0,15.71,-18.83,-20.09,0,*4A
1530684261.17,37283,16.5,74040.8,15.71,-18.83,-19.95,0,*44
1530684262.37,37284,16.5,74042.3,15.73,-18.69,-19.91,0,*41
1530684263.6,37285,16.44,74040.5,15.75,-18.65,-19.95,0,*4E
1530684264.79,37286,16.44,74036.3,15.77,-18.41,-19.47,0,*46
1530684266.03,37287,16.44,74040.0,15.79,-18.69,-19.95,0,*4C
1530684267.23,37288,16.5,74042.3,15.77,-19.13,-20.29,0,*4C
1530684268.48,37289,16.44,74042.3,15.79,-19.75,-21.03,0,*4A
1530684269.71,37290,16.44,74042.0,15.79,-19.95,-21.17,0,*49
1530684270.91,37291,16.5,74040.5,15.77,-19.91,-21.13,0,*46
1530684272.16,37292,16.44,74038.0,15.79,-19.75,-20.99,0,*42
1530684273.41,37293,16.5,74042.3,15.79,-18.89,-20.05,0,*44
1530684274.63,37294,16.5,74046.8,15.79,-18.99,-20.09,0,*4E
1530684275.86,37295,16.5,74042.5,15.83,-19.47,-20.79,0,*4F
1530684277.11,37296,16.44,74042.3,15.81,-20.49,-21.77,0,*45
1530684278.36,37297,16.5,74042.8,15.81,-19.71,-20.99,0,*44
1530684279.59,37298,16.5,74038.8,15.81,-19.47,-20.69,0,*41
1530684280.85,37299,16.44,74038.5,15.79,-19.51,-20.83,0,*44
1530684282.1,37300,16.5,74042.0,15.81,-19.13,-20.35,0,*49
1530684283.3,37301,16.44,74038.0,15.83,-19.99,-21.13,0,*4D
1530684284.53,37302,16.44,74036.5,15.81,-19.47,-20.63,0,*49
1530684285.76,37303,16.5,74042.0,15.83,-20.19,-21.47,0,*4C
1530684286.99,37304,16.5,74040.8,15.81,-19.17,-20.25,0,*48
1530684288.19,37305,16.44,74036.8,15.83,-18.83,-19.99,0,*4A
1530684289.42,37306,16.5,74042.5,15.83,-19.75,-20.79,0,*45
1530684290.68,37307,16.5,74040.8,15.83,-19.27,-20.35,0,*4B
1530684291.9,37308,16.5,74042.0,15.83,-19.75,-20.83,0,*4E
1530684293.14,37309,16.5,74040.5,15.83,-19.61,-20.63,0,*44
1530684294.34,37310,16.44,74036.3,15.83,-18.99,-20.05,0,*4A
1530684295.57,37311,16.44,74036.8,15.85,-19.07,-20.09,0,*47
1530684296.8,37312,16.44,74038.5,15.85,-19.37,-20.29,0,*45
1530684298.06,37313,16.44,74038.0,15.85,-19.27,-20.29,0,*45
1530684299.33,37314,16.44,74036.5,15.85,-18.89,-19.81,0,*4F
1530684300.55,37315,16.44,74038.5,15.89,-18.73,-19.75,0,*4C
1530684301.76,37316,16.5,74038.0,15.91,-19.17,-20.09,0,*44
1530684302.99,37317,16.5,74042.5,15.91,-19.71,-20.53,0,*4A
1530684304.22,37318,16.5,74038.3,15.91,-19.61,-20.69,0,*4D
1530684305.47,37319,16.44,74036.0,15.91,-18.93,-19.85,0,*48
1530684306.67,37320,16.5,74038.8,15.91,-19.13,-19.99,0,*46
1530684307.93,37321,16.44,74036.3,15.93,-18.79,-19.57,0,*4A
1530684309.12,37322,16.44,74034.5,15.95,-18.21,-19.13,0,*42
1530684310.33,37323,16.5,74040.3,15.93,-18.11,-18.83,0,*4E
1530684311.58,37324,16.5,74040.8,15.97,-18.01,-18.73,0,*43
1530684312.86,37325,16.5,74038.0,15.97,-19.41,-20.19,0,*40
1530684314.1,37326,16.5,74036.8,15.97,-18.89,-19.71,0,*42
1530684315.35,37327,16.5,74036.0,15.97,-19.81,-20.63,0,*43
1530684316.6,37328,16.44,74038.0,15.97,-21.13,-21.87,0,*47
1530684317.82,37329,16.5,74038.0,15.95,-19.81,-20.43,0,*4D
1530684319.04,37330,16.44,74036.3,15.95,-18.49,-19.23,0,*4C
1530684320.25,37331,16.5,74038.5,15.97,-18.21,-18.99,0,*41
1530684321.48,37332,16.44,74036.3,15.97,-18.49,-19.37,0,*49
1530684322.72,37333,16.44,74036.0,15.99,-19.61,-20.59,0,*4F
1530684323.95,37334,16.44,74036.5,15.97,-19.99,-20.93,0,*47
1530684325.23,37335,16.5,74036.8,15.97,-19.65,-20.49,0,*42
1530684326.46,37336,16.44,74034.0,15.97,-19.13,-19.99,0,*47
1530684327.68,37337,16.5,74038.8,15.99,-19.03,-19.81,0,*40
1530684328.94,37338,16.44,74038.0,15.97,-18.31,-19.13,0,*4A
1530684330.17,37339,16.44,74034.8,15.99,-17.97,-18.69,0,*4A
1530684331.4,37340,16.44,74032.8,15.99,-17.97,-18.73,0,*4F
1530684332.64,37341,16.5,74038.0,16.01,-18.49,-19.41,0,*40
1530684333.87,37342,16.44,74034.8,16.03,-18.83,-19.61,0,*45
1530684335.13,37343,16.44,74034.5,16.03,-19.61,-20.53,0,*42
1530684336.34,37344,16.44,74038.3,16.03,-20.35,-21.17,0,*4F
1530684337.54,37345,16.5,74036.0,16.03,-18.99,-19.75,0,*4C
1530684338.78,37346,16.44,74036.5,16.01,-19.13,-19.95,0,*40
1530684340.0,37347,16.44,74034.8,16.01,-21.13,-22.11,0,*4E
1530684341.22,37348,16.44,74038.3,16.01,-21.77,-22.67,0,*42
1530684342.45,37349,16.5,74038.5,15.97,-22.37,-23.43,0,*4F
1530684343.64,37350,16.5,74038.3,15.95,-20.93,-22.07,0,*48
1530684344.88,37351,16.44,74034.5,15.93,-21.33,-22.27,0,*46
1530684346.13,37352,16.5,74038.0,15.91,-21.27,-22.21,0,*44
1530684347.41,37353,16.5,74038.3,15.89,-21.67,-22.47,0,*48
1530684348.66,37354,16.44,74036.5,15.85,-20.63,-21.53,0,*40
1530684349.92,37355,16.5,74038.0,15.85,-19.95,-20.99,0,*45
1530684351.17,37356,16.44,74038.8,15.85,-20.29,-21.23,0,*4B
1530684352.37,37357,16.5,74036.3,15.83,-20.25,-20.93,0,*4A
1530684353.58,37358,16.44,74036.0,15.83,-20.35,-21.13,0,*4D
1530684354.84,37359,16.44,74036.5,15.85,-20.43,-21.27,0,*4C
1530684356.04,37360,16.5,74036.8,15.83,-20.63,-21.73,0,*43
1530684357.24,37361,16.44,74036.5,15.83,-22.03,-22.97,0,*4F
1530684358.51,37362,16.44,74036.0,15.79,-22.73,-23.69,0,*4E
1530684359.76,37363,16.44,74036.8,15.79,-20.99,-21.93,0,*4E
1530684361.02,37364,16.44,74034.8,15.75,-21.53,-22.53,0,*4D
1530684362.27,37365,16.44,74034.3,15.73,-21.83,-22.77,0,*41
1530684363.47,37366,16.44,74036.5,15.73,-21.47,-22.57,0,*48
1530684364.74,37367,16.5,74036.0,15.71,-23.03,-24.15,0,*49
1530684365.96,37368,16.5,74036.5,15.67,-21.39,-22.41,0,*4D
1530684367.21,37369,16.5,74036.3,15.67,-22.77,-23.89,0,*40
1530684368.47,37370,16.44,74034.8,15.63,-22.21,-23.13,0,*4C
1530684369.75,37371,16.5,74036.8,15.63,-21.27,-22.21,0,*48
1530684370.97,37372,16.44,74032.8,15.61,-20.99,-21.63,0,*48
1530684372.19,37373,16.44,74034.8,15.61,-20.79,-21.93,0,*48
1530684373.48,37374,16.44,74036.8,15.59,-21.33,-22.47,0,*41
1530684374.73,37375,16.5,74036.8,15.59,-20.49,-21.43,0,*4B
1530684375.99,37376,16.44,74036.8,15.59,-20.83,-21.93,0,*43
1530684377.22,37377,16.44,74036.5,15.57,-21.03,-22.11,0,*4C
1530684378.45,37378,16.5,74036.5,15.57,-21.03,-22.11,0,*43
1530684379.67,37379,16.44,74034.3,15.55,-19.99,-21.09,0,*42
1530684380.9,37380,16.5,74036.8,15.53,-20.83,-21.93,0,*40
1530684382.13,37381,16.44,74036.0,15.55,-21.09,-22.11,0,*4D
1530684383.39,37382,16.44,74038.8,15.55,-21.47,-22.47,0,*47
1530684384.61,37383,16.5,74036.3,15.55,-20.09,-21.09,0,*44
1530684385.85,37384,16.44,74038.8,15.55,-20.29,-21.33,0,*48
1530684387.08,37385,16.5,74038.3,15.53,-20.99,-22.03,0,*44
1530684388.31,37386,16.44,74036.8,15.53,-20.69,-21.87,0,*47
1530684389.51,37387,16.5,74036.0,15.53,-20.69,-21.77,0,*49
1530684390.79,37388,16.5,74036.5,15.51,-20.53,-21.57,0,*4F
1530684392.04,37389,16.5,74038.5,15.51,-20.49,-21.47,0,*44
1530684393.27,37390,16.44,74038.5,15.51,-19.75,-20.69,0,*44
1530684394.51,37391,16.5,74038.3,15.51,-19.75,-20.89,0,*4B
1530684395.77,37392,16.44,74038.5,15.51,-21.03,-22.07,0,*46
1530684397.02,37393,16.5,74036.5,15.49,-21.67,-23.19,0,*42
1530684398.25,37394,16.44,74034.3,15.49,-21.03,-22.11,0,*4E
1530684399.45,37395,16.44,74036.5,15.49,-20.25,-21.43,0,*4E
1530684400.65,37396,16.5,74036.5,15.47,-20.39,-21.47,0,*4A
1530684401.88,37397,16.44,74038.0,15.47,-20.09,-21.23,0,*4A
1530684403.1,37398,16.5,74036.5,15.49,-19.81,-21.13,0,*42
1530684404.31,37399,16.5,74036.5,15.47,-19.03,-19.95,0,*42
1530684405.53,37400,16.5,74036.3,15.49,-20.53,-21.63,0,*46
1530684406.75,37401,16.5,74038.3,15.47,-19.85,-21.09,0,*44
1530684407.98,37402,16.5,74038.5,15.47,-20.43,-21.53,0,*48
1530684409.22,37403,16.44,74034.5,15.47,-21.39,-22.47,0,*43
1530684410.46,37404,16.44,74034.3,15.45,-22.11,-23.29,0,*46
1530684411.71,37405,16.5,74034.5,15.45,-20.53,-21.47,0,*49
1530684412.96,37406,16.44,74032.8,15.39,-20.19,-21.27,0,*49
1530684414.19,37407,16.44,74032.5,15.43,-21.13,-22.17,0,*4E
1530684415.42,37408,16.5,74036.5,15.39,-21.93,-23.19,0,*4B
1530684416.62,37409,16.5,74036.8,15.39,-21.47,-22.67,0,*4B
1530684417.87,37410,16.5,74038.8,15.37,-21.03,-22.11,0,*4C
1530684419.1,37411,16.44,74034.0,15.39,-20.69,-21.83,0,*46
1530684420.33,37412,16.44,74034.0,15.35,-20.73,-21.87,0,*46
1530684421.58,37413,16.5,74038.5,15.37,-20.93,-22.17,0,*41
1530684422.82,37414,16.44,74034.5,15.35,-21.53,-22.63,0,*4A
1530684424.05,37415,16.44,74034.8,15.35,-21.03,-22.27,0,*4E
1530684425.31,37416,16.5,74036.8,15.33,-21.87,-22.97,0,*4C
1530684426.54,37417,16.44,74034.8,15.31,-21.39,-22.31,0,*46
1530684427.77,37418,16.5,74038.0,15.31,-20.59,-21.57,0,*4D
1530684428.99,37419,16.44,74036.0,15.31,-20.19,-21.43,0,*4D
1530684430.26,37420,16.5,74036.0,15.33,-20.79,-21.83,0,*4F
1530684431.46,37421,16.44,74034.0,15.31,-20.05,-21.09,0,*45
1530684432.68,37422,16.5,74036.3,15.31,-20.35,-21.39,0,*46
1530684433.93,37423,16.44,74036.3,15.31,-21.23,-22.21,0,*4B
1530684435.14,37424,16.5,74036.5,15.31,-19.99,-20.93,0,*4D
1530684436.34,37425,16.5,74038.3,15.31,-20.05,-20.93,0,*43
1530684437.57,37426,16.5,74038.0,15.31,-21.53,-22.67,0,*4B
1530684438.78,37427,16.44,74036.8,15.27,-22.57,-23.59,0,*46
1530684440.02,37428,16.5,74038.8,15.27,-21.53,-22.57,0,*41
1530684441.28,37429,16.44,74034.3,15.27,-21.23,-22.31,0,*47
1530684442.49,37430,16.44,74036.5,15.23,-21.73,-22.93,0,*46
1530684443.72,37431,16.44,74036.8,15.23,-21.39,-22.47,0,*40
1530684444.98,37432,16.5,74036.5,15.21,-21.73,-22.73,0,*48
1530684446.21,37433,16.5,74036.8,15.17,-21.47,-22.63,0,*4A
1530684447.47,37434,16.5,74036.0,15.21,-21.27,-22.63,0,*4E
1530684448.72,37435,16.5,74036.0,15.17,-22.41,-23.53,0,*4B
1530684449.96,37436,16.5,74038.3,15.13,-22.17,-22.97,0,*46
1530684451.21,37437,16.5,74040.3,15.13,-21.27,-22.47,0,*4A
1530684452.41,37438,16.44,74036.3,15.13,-20.63,-21.73,0,*40
1530684453.61,37439,16.5,74038.5,15.13,-20.09,-21.17,0,*4F
1530684454.84,37440,16.5,74040.0,15.13,-20.89,-21.97,0,*41
1530684456.06,37441,16.44,74038.5,15.13,-21.97,-22.97,0,*4D
1530684457.31,37442,16.5,74038.5,15.11,-21.03,-22.11,0,*4F
1530684458.54,37443,16.5,74040.3,15.13,-20.09,-21.27,0,*41
1530684459.79,37444,16.44,74038.5,15.11,-19.85,-20.93,0,*44
1530684461.04,37445,16.5,74040.0,15.09,-20.19,-21.27,0,*4D
1530684462.25,37446,16.5,74038.0,15.09,-19.75,-20.93,0,*40
1530684463.5,37447,16.5,74042.0,15.11,-20.09,-21.23,0,*43
1530684464.76,37448,16.5,74040.8,15.11,-19.51,-20.79,0,*45
1530684465.96,37449,16.5,74042.0,15.13,-20.93,-22.11,0,*4E
1530684467.21,37450,16.44,74036.3,15.11,-19.71,-20.79,0,*4E
1530684468.47,37451,16.5,74040.0,15.11,-18.93,-19.99,0,*46
1530684469.68,37452,16.5,74038.0,15.13,-19.37,-20.73,0,*46
1530684470.9,37453,16.44,74038.8,15.13,-20.15,-21.39,0,*42
1530684472.1,37454,16.5,74040.3,15.13,-20.89,-22.11,0,*49
1530684473.33,37455,16.44,74038.8,15.11,-21.43,-22.67,0,*4C
1530684474.55,37456,16.44,74038.8,15.09,-21.43,-22.73,0,*43
1530684475.83,37457,16.5,74040.5,15.11,-20.49,-21.87,0,*48
1530684477.05,37458,16.5,74040.8,15.09,-20.19,-21.43,0,*43
1530684478.27,37459,16.5,74040.8,15.09,-19.13,-20.39,0,*4E
1530684479.54,37460,16.5,74040.8,15.11,-18.93,-20.15,0,*4A
1530684480.75,37461,16.5,74040.5,15.13,-18.65,-19.95,0,*42
1530684481.95,37462,16.44,74040.3,15.13,-18.45,-19.71,0,*49
1530684483.17,37463,16.44,74038.8,15.15,-18.25,-19.47,0,*4D
1530684484.43,37464,16.5,74042.8,15.15,-18.41,-19.65,0,*48
1530684485.66,37465,16.5,74042.3,15.15,-18.99,-20.29,0,*4E
1530684486.89,37466,16.5,74042.5,15.15,-18.07,-19.37,0,*4F
1530684488.15,37467,16.5,74040.5,15.21,-17.45,-18.69,0,*4A
1530684489.41,37468,16.44,74042.0,15.21,-17.49,-18.93,0,*4C
1530684490.64,37469,16.44,74040.5,15.23,-17.83,-19.23,0,*43
1530684491.93,37470,16.5,74042.5,15.25,-19.27,-20.79,0,*48
1530684493.14,37471,16.5,74040.5,15.23,-19.71,-21.13,0,*41
1530684494.42,37472,16.5,74040.3,15.25,-19.57,-21.03,0,*41
1530684495.65,37473,16.5,74042.8,15.23,-20.29,-21.87,0,*49
1530684496.89,37474,16.44,74040.0,15.23,-19.27,-20.93,0,*4E
1530684498.17,37475,16.5,74042.5,15.25,-20.15,-21.83,0,*42